Regional Weather Roundup
Issued by NWS

Home | Current Version | Previous Version | Text Only | Print | Product List | Glossary On
Versions: 1 2 3 4 5 6 7 8 9 10 11 12 13 14 15 16 17 18 19 20 21 22 23 24 25 26 27 28 29 30 31 32 33 34 35 36 37 38 39 40 41 42 43 44 45 46 47 48 49 50
000
ASUS44 KOUN 020110
RWROK

WEATHER ROUNDUP FOR OKLAHOMA
NATIONAL WEATHER SERVICE NORMAN OK
800 PM CDT SUN MAY 01 2016

NOTE: "FAIR" INDICATES FEW OR NO CLOUDS BELOW 12,000 FEET WITH NO
      SIGNIFICANT WEATHER AND/OR OBSTRUCTIONS TO VISIBILITY.

OKZ001>007-009>012-014-015-017-020200-
NORTHWEST OKLAHOMA AND THE PANHANDLE

CITY           SKY/WX    TMP DP  RH WIND       PRES   REMARKS
GAGE           CLOUDY    49  39  68 N14       30.17R
GUYMON         LGT RAIN  44  40  85 N7        30.21R
ENID/WOODRING  MOCLDY    54  46  76 N12       30.11S
$$

OKZ016-021>023-033>039-044-045-020200-
SOUTHWEST OKLAHOMA

CITY           SKY/WX    TMP DP  RH WIND       PRES   REMARKS
LAWTON/REGL    CLOUDY    55  49  80 N15       30.08R
LAWTON/FT SILL DRIZZLE   55  48  76 N14       30.08F
FREDERICK      CLOUDY    55  48  77 N12G21    30.09R
CLINTON        CLOUDY    51  42  71 N10       30.17R
HOBART         CLOUDY    54  45  71 N15       30.14R
ALTUS AFB      LGT RAIN  55  44  68 N15       30.13R
$$

OKZ018>020-024>031-020200-
CENTRAL OKLAHOMA

CITY           SKY/WX    TMP DP  RH WIND       PRES   REMARKS
OKLAHOMA CITY  LGT RAIN  56  45  66 N14       30.09R
OKC/WILEY POST LGT RAIN  53  48  83 N10       30.10R
OKC/TINKER AFB CLOUDY    57  45  65 N15       30.08R
STILLWATER     CLOUDY    55  45  68 N10       30.10R
GUTHRIE        CLOUDY    53  47  79 CALM      30.11S
$$

OKZ008-013-054>072-020200-
NORTHEAST OKLAHOMA

CITY           SKY/WX    TMP DP  RH WIND       PRES   REMARKS
TULSA          MOCLDY    60  49  66 N10       30.05R
TULSA/JONES    MOCLDY    62  46  55 N9        30.06R
PONCA CITY     CLOUDY    54  43  66 NW7       30.12R
BARTLESVILLE   CLEAR     55  45  68 CALM      30.09S
MUSKOGEE       PTCLDY    62  47  57 N8        30.05R
$$

OKZ032-040>043-046>053-073>077-020200-
SOUTH CENTRAL/SOUTHEAST OKLAHOMA

CITY           SKY/WX    TMP DP  RH WIND       PRES   REMARKS
ARDMORE/DWNTWN CLOUDY    64  45  48 N6        30.04R
MCALESTER      PTCLDY    64  47  53 N7        30.04R
$$





USA.gov is the U.S. government's official web portal to all federal, state and local government web resources and services.